Location: Unspecified
(0.0000°N, 0.0000°E)
Time: 13:25:38
(UTC+00:00)

Envisat - Pass Details

Date: 20 May 2022
Orbit: 764 x 765 km, 98.2° (Epoch: 19 May)

Event Time Altitude Azimuth Distance (km) Brightness Sun altitude
Rises 05:24:33 0° 333° (NNW) 3,214 6.2 -7.5°
Reaches altitude 10° 05:28:38 10° 300° (WNW) 2,293 5.1 -6.6°
Maximum altitude 05:30:10 11° 283° (WNW) 2,203 4.9 -6.2°
Drops below altitude 10° 05:31:42 10° 265° (W) 2,296 4.8 -5.8°
Enters shadow 05:33:36 - 246° (WSW) 2,631 5.1 -5.4°
